SCP
0 0 0 0 0 0 0 0 0 0 0 0 0 0 0 0 0 0 0 0 0 0
0 0 0 0 0 0 0 0 0 0 0 0 0 0 0 0 0 0 0 0 0 0
0 0 0 0 0 0 0 0 0 0 0 0 0 0 0 0 0 0 0 0 0 0
0 0 0 0 0 0 0 0 0 0 0 0 0 0 0 0 0 0 0 0 0 0
0 0 0 0 0 0 0 0 0 0 0 0 0 0 0 0 0 0 0 0 0 0
0 0 0 0 0 0 0 0 0 0 0 0 0 0 0 0 0 0 0 0 0 0
0 0 0 0 0 0 0 0 0 0 0 0 0 0 0 0 0 0 0 0 0 0
0 0 0 0 0 0 0 0 0 0 0 0 0 0 0 0 0 0 0 0 0 0
0 0 0 0 0 0 0 0 0 0 0 0 0 0 0 0 0 0 0 0 0 0
0 0 0 0 0 0 0 0 0 0 0 0 0 0 0 0 0 0 0 0 0 0
0 0 0 0 0 0 0 0 0 0 0 0 0 0 0 0 0 0 0 0 0 0
0 0 0 0 0 0 0 0 0 0 0 0 0 0 0 0 0 0 0 0 0 0
0 0 0 0 0 0 0 0 0 0 0 0 0 0 0 0 0 0 0 0 0 0
0 0 0 0 0 0 0 0 0 0 0 0 0 0 0 0 0 0 0 0 0 0
Wind_Speed_500mb
57 54 48 41 34 30 27 25 20 15 9 7 8 11 15 18 20 19 17 17 17 19
60 55 47 39 34 31 29 24 19 14 8 3 2 6 12 15 16 15 16 18 20 22
60 52 44 39 35 31 27 23 19 16 11 7 1 5 9 12 13 15 18 20 23 24
60 54 46 39 35 32 28 24 21 17 13 7 2 5 8 10 12 15 18 21 23 25
61 56 49 43 38 34 30 28 25 20 15 9 5 5 7 11 12 14 19 23 27 31
61 57 53 47 43 39 35 32 28 23 18 12 8 8 12 14 14 17 22 28 32 35
65 60 53 49 44 41 39 36 32 27 21 16 12 16 18 19 20 22 25 30 34 38
66 60 56 51 48 45 42 39 35 31 26 20 20 23 25 26 27 29 32 35 39 40
68 64 61 56 54 49 47 44 39 35 30 27 26 28 31 35 35 37 40 41 43 43
72 68 64 60 57 53 51 46 43 40 34 33 32 33 36 39 42 44 45 46 47 46
73 70 65 63 59 55 54 51 49 43 39 37 35 35 38 43 47 49 49 49 50 51
75 69 65 64 62 63 58 56 52 45 43 42 37 37 41 47 51 52 52 53 53 53
67 57 65 72 66 59 58 56 52 49 49 48 44 44 47 50 54 56 55 57 56 54
62 65 63 60 59 55 55 55 54 55 56 55 55 53 53 54 57 57 58 61 60 59
Wind_Direction_500mb
181 176 172 168 164 166 167 161 158 153 138 99 56 30 16 6 2 -0 359 0 1 354
182 182 179 173 175 177 173 171 165 164 161 134 57 16 5 357 355 356 358 356 354 352
185 183 183 184 183 180 178 177 181 187 188 187 162 3 357 360 356 352 347 345 343 340
187 187 189 189 187 187 188 189 193 196 193 194 236 341 353 351 345 339 336 335 335 331
193 193 193 192 193 195 196 199 204 200 201 212 241 312 325 327 327 325 330 332 330 327
198 199 198 198 200 201 204 208 207 208 212 221 252 289 303 302 303 315 324 330 329 323
205 204 203 205 205 207 211 213 212 215 221 232 255 278 282 282 286 300 312 319 318 313
208 206 207 208 209 212 216 216 217 223 229 241 264 274 275 276 282 292 301 304 305 304
209 210 211 212 214 217 220 220 224 229 237 252 265 271 271 273 281 288 290 295 300 302
213 215 216 217 219 222 226 226 230 234 244 258 267 270 272 276 280 282 286 292 298 301
217 220 220 221 224 228 229 231 235 241 251 260 267 270 276 278 279 281 284 291 295 298
222 223 227 228 234 230 231 234 239 247 255 261 264 269 273 276 279 280 284 289 292 295
226 234 239 235 234 236 238 241 244 251 257 260 261 264 270 273 276 278 283 285 289 292
238 239 236 236 237 239 242 245 249 256 260 262 262 264 267 269 272 279 282 286 291 293
Wind_Speed_850mb
57 54 48 41 34 30 27 25 20 15 9 7 8 11 15 18 20 19 17 17 17 19
60 55 47 39 34 31 29 24 19 14 8 3 2 6 12 15 16 15 16 18 20 22
60 52 44 39 35 31 27 23 19 16 11 7 1 5 9 12 13 15 18 20 23 24
60 54 46 39 35 32 28 24 21 17 13 7 2 5 8 10 12 15 18 21 23 25
61 56 49 43 38 34 30 28 25 20 15 9 5 5 7 11 12 14 19 23 27 31
61 57 53 47 43 39 35 32 28 23 18 12 8 8 12 14 14 17 22 28 32 35
65 60 53 49 44 41 39 36 32 27 21 16 12 16 18 19 20 22 25 30 34 38
66 60 56 51 48 45 42 39 35 31 26 20 20 23 25 26 27 29 32 35 39 40
68 64 61 56 54 49 47 44 39 35 30 27 26 28 31 35 35 37 40 41 43 43
72 68 64 60 57 53 51 46 43 40 34 33 32 33 36 39 42 44 45 46 47 46
73 70 65 63 59 55 54 51 49 43 39 37 35 35 38 43 47 49 49 49 50 51
75 69 65 64 62 63 58 56 52 45 43 42 37 37 41 47 51 52 52 53 53 53
67 57 65 72 66 59 58 56 52 49 49 48 44 44 47 50 54 56 55 57 56 54
62 65 63 60 59 55 55 55 54 55 56 55 55 53 53 54 57 57 58 61 60 59
Wind_Direction_850mb
181 176 172 168 164 166 167 161 158 153 138 99 56 30 16 6 2 -0 359 0 1 354
182 182 179 173 175 177 173 171 165 164 161 134 57 16 5 357 355 356 358 356 354 352
185 183 183 184 183 180 178 177 181 187 188 187 162 3 357 360 356 352 347 345 343 340
187 187 189 189 187 187 188 189 193 196 193 194 236 341 353 351 345 339 336 335 335 331
193 193 193 192 193 195 196 199 204 200 201 212 241 312 325 327 327 325 330 332 330 327
198 199 198 198 200 201 204 208 207 208 212 221 252 289 303 302 303 315 324 330 329 323
205 204 203 205 205 207 211 213 212 215 221 232 255 278 282 282 286 300 312 319 318 313
208 206 207 208 209 212 216 216 217 223 229 241 264 274 275 276 282 292 301 304 305 304
209 210 211 212 214 217 220 220 224 229 237 252 265 271 271 273 281 288 290 295 300 302
213 215 216 217 219 222 226 226 230 234 244 258 267 270 272 276 280 282 286 292 298 301
217 220 220 221 224 228 229 231 235 241 251 260 267 270 276 278 279 281 284 291 295 298
222 223 227 228 234 230 231 234 239 247 255 261 264 269 273 276 279 280 284 289 292 295
226 234 239 235 234 236 238 241 244 251 257 260 261 264 270 273 276 278 283 285 289 292
238 239 236 236 237 239 242 245 249 256 260 262 262 264 267 269 272 279 282 286 291 293